Погода в Ладыгах

Украина / Хмельницкая область     49°44′55″N   27°28′11″E
темп.,
°C
ветер,
м/с
пор.,
м/с
влажн.,
%
обл.,
%
осадки,
мм/ч
давл.,
гПа
погр.,
м
17 мая, вт
вт1700:00+8ссв1183100 0.0 101911
03:00+7сз1178100 0.0 101910
06:00+8зюз1173100 0.0 101811
09:00+13зсз2457100 0.0 1017354
12:00+16зсз684843 0.0 10162053
15:00+17сз8104767 0.0 10152407
18:00+14сз695599 0.0 10151774
21:00+9ссз51157100 0.0 1016411
18 мая, ср
ср1800:00+6сз4126537 0.0 1017280
03:00+4сз512774 0.0 1019356
06:00+4ссз7128461 0.0 1020561
09:00+6с8127770 0.0 1021991
12:00+8с7117299 0.1 10231332
15:00+11ссз7106377 0.2 10241422
18:00+12с5961100 0.0 10241185
21:00+11сз41065100 0.0 1025411
19 мая, чт
чт1900:00+6сз49875 0.0 1027155
03:00+5сз36905 0.0 1028101
06:00+4сз36921 0.0 1028110
09:00+11сз46695 0.0 1028505
12:00+15сз455337 0.0 10271280
15:00+17сз56475 0.0 10261500
18:00+17сз465496 0.0 10251413
21:00+11зсз337499 0.0 102521
20 мая, пт
пт2000:00+9з337735 0.0 102533
03:00+8зюз337996 0.0 102434
06:00+8зюз347954 0.0 102364
09:00+14зюз4664100 0.0 1022295
12:00+19зюз5752100 0.0 10201007
15:00+20зюз7952100 0.0 10181216
18:00+20з6105970 0.0 10161189
21:00+15зюз498189 0.0 1015145
21 мая, сб
сб2100:00+14з61591100 1.3 1013476
03:00+13з51393100 1.7 1012347
06:00+12з41293100 0.0 1011315
09:00+14з41394100 0.8 1010563
12:00+15з3894100 1.7 1008585
15:00+12ссв4498100 4.1 1009274
18:00+11сз4895100 1.9 1010345
21:00+11зсз4109671 1.9 1011366